When you browse on this site, cookies collect data to enhance your experience and personalize the content and advertising you see.
Visit our Privacy Policy to learn more. By continuing to use the site, you agree to this use of cookies and data.
  • In Hungary
  • List of Countries
  • For 7 days
  • Water Temperature
  • Satellite Maps
  • Weather Map
  • News
  • Weather Widgets
  • user-avatar
    Login

    Hourly Weather Kitale

    Today, 18 February, Monday

    Time Temperature Precipitation Wind Pressure Humidity
    00:00 +21°C° 0 mm 1 mps 614 mmHg 40%
    01:00 +20°C° 0 mm 1 mps 614 mmHg 42%
    02:00 +19°C° 0 mm 1 mps 613 mmHg 44%
    03:00 +19°C° 0 mm 1 mps 613 mmHg 46%
    04:00 +18°C° 0 mm 1 mps 613 mmHg 48%
    05:00 +18°C° 0 mm 1 mps 613 mmHg 50%
    06:00 +20°C° 0 mm 1 mps 614 mmHg 44%
    07:00 +23°C° 0 mm 1 mps 615 mmHg 38%
    08:00 +26°C° 0 mm 1 mps 616 mmHg 32%
    09:00 +28°C° 0 mm 1 mps 617 mmHg 27%
    10:00 +30°C° 0 mm 1 mps 617 mmHg 22%
    11:00 +32°C° 0 mm 2 mps 618 mmHg 17%
    12:00 +34°C° 0 mm 2 mps 617 mmHg 16%
    13:00 +34°C° 0 mm 2 mps 616 mmHg 15%
    14:00 +35°C° 0 mm 2 mps 616 mmHg 14%
    15:00 +32°C° 0 mm 2 mps 615 mmHg 15%
    16:00 +31°C° 0 mm 3 mps 614 mmHg 16%
    17:00 +30°C° 0 mm 3 mps 613 mmHg 17%
    18:00 +27°C° 0 mm 3 mps 613 mmHg 21%
    19:00 +24°C° 0 mm 2 mps 612 mmHg 25%
    20:00 +22°C° 0 mm 1 mps 612 mmHg 29%
    21:00 +21°C° 0 mm 1 mps 612 mmHg 30%
    22:00 +20°C° 0 mm 1 mps 612 mmHg 32%
    23:00 +20°C° 0 mm 1 mps 612 mmHg 33%

    Tomorrow, 19 February, Tuesday

    Time Temperature Precipitation Wind Pressure Humidity
    00:00 +19°C° 0 mm 1 mps 612 mmHg 34%
    01:00 +19°C° 0 mm 1 mps 612 mmHg 35%
    02:00 +18°C° 0 mm 1 mps 612 mmHg 36%
    03:00 +18°C° 0 mm 1 mps 612 mmHg 38%
    04:00 +18°C° 0 mm 1 mps 611 mmHg 40%
    05:00 +16°C° 0 mm 1 mps 611 mmHg 43%
    06:00 +20°C° 0 mm 1 mps 613 mmHg 39%
    07:00 +23°C° 0 mm 1 mps 614 mmHg 34%
    08:00 +26°C° 0 mm 1 mps 615 mmHg 30%
    09:00 +28°C° 0 mm 1 mps 616 mmHg 27%
    10:00 +30°C° 0 mm 1 mps 617 mmHg 23%
    11:00 +33°C° 0 mm 1 mps 617 mmHg 20%
    12:00 +32°C° 0 mm 2 mps 616 mmHg 21%
    13:00 +30°C° 0 mm 2 mps 615 mmHg 23%
    14:00 +29°C° 0 mm 2 mps 613 mmHg 24%
    15:00 +29°C° 0 mm 2 mps 613 mmHg 25%
    16:00 +28°C° 0 mm 2 mps 613 mmHg 26%
    17:00 +28°C° 0 mm 3 mps 613 mmHg 27%
    18:00 +27°C° 0 mm 2 mps 613 mmHg 30%
    19:00 +25°C° 0 mm 2 mps 613 mmHg 33%
    20:00 +24°C° 0 mm 1 mps 614 mmHg 35%
    21:00 +23°C° 0.1 mm 1 mps 614 mmHg 39%
    22:00 +23°C° 0.1 mm 1 mps 614 mmHg 43%
    23:00 +22°C° 0.1 mm 1 mps 614 mmHg 47%

    Day after tomorrow, 20 February, Wednesday

    Time Temperature Precipitation Wind Pressure Humidity
    00:00 +22°C° 0 mm 1 mps 613 mmHg 49%
    01:00 +21°C° 0 mm 1 mps 613 mmHg 51%
    02:00 +21°C° 0 mm 1 mps 612 mmHg 53%
    03:00 +20°C° 0 mm 1 mps 612 mmHg 57%
    04:00 +19°C° 0 mm 1 mps 612 mmHg 61%
    05:00 +18°C° 0 mm 1 mps 611 mmHg 64%
    06:00 +21°C° 0 mm 1 mps 613 mmHg 58%
    07:00 +23°C° 0 mm 1 mps 614 mmHg 51%
    08:00 +25°C° 0 mm 2 mps 615 mmHg 45%
    09:00 +28°C° 0 mm 2 mps 616 mmHg 38%
    10:00 +31°C° 0 mm 2 mps 617 mmHg 31%
    11:00 +35°C° 0 mm 2 mps 617 mmHg 24%
    12:00 +34°C° 0 mm 2 mps 616 mmHg 24%
    13:00 +32°C° 0 mm 2 mps 615 mmHg 25%
    14:00 +31°C° 0 mm 2 mps 614 mmHg 25%
    15:00 +30°C° 0 mm 2 mps 614 mmHg 27%
    16:00 +29°C° 0 mm 2 mps 613 mmHg 28%
    17:00 +29°C° 0 mm 2 mps 613 mmHg 29%
    18:00 +27°C° 0 mm 2 mps 614 mmHg 36%
    19:00 +25°C° 0 mm 2 mps 614 mmHg 43%
    20:00 +23°C° 0 mm 2 mps 614 mmHg 51%
    21:00 +23°C° 0.1 mm 1 mps 615 mmHg 54%
    22:00 +22°C° 0.1 mm 1 mps 615 mmHg 57%
    23:00 +22°C° 0.1 mm 1 mps 615 mmHg 60%

    21 February, Thursday

    Time Temperature Precipitation Wind Pressure Humidity
    00:00 +21°C° 0.1 mm 1 mps 614 mmHg 64%
    01:00 +20°C° 0.1 mm 1 mps 613 mmHg 67%
    02:00 +20°C° 0.1 mm 1 mps 613 mmHg 71%
    03:00 +19°C° 0 mm 1 mps 613 mmHg 74%
    04:00 +19°C° 0 mm 1 mps 613 mmHg 76%
    05:00 +18°C° 0 mm 1 mps 612 mmHg 79%
    06:00 +20°C° 0 mm 1 mps 614 mmHg 70%
    07:00 +22°C° 0 mm 1 mps 615 mmHg 61%
    08:00 +24°C° 0 mm 1 mps 616 mmHg 52%
    09:00 +26°C° 0 mm 1 mps 617 mmHg 44%
    10:00 +29°C° 0 mm 2 mps 617 mmHg 36%
    11:00 +32°C° 0 mm 2 mps 618 mmHg 29%
    12:00 +31°C° 0 mm 2 mps 617 mmHg 29%
    13:00 +30°C° 0 mm 2 mps 615 mmHg 30%
    14:00 +29°C° 0 mm 2 mps 614 mmHg 30%
    15:00 +29°C° 0 mm 2 mps 614 mmHg 32%
    16:00 +28°C° 0 mm 2 mps 614 mmHg 34%
    17:00 +27°C° 0 mm 2 mps 614 mmHg 36%
    18:00 +25°C° 0 mm 2 mps 614 mmHg 43%
    19:00 +23°C° 0 mm 1 mps 614 mmHg 49%
    20:00 +21°C° 0 mm 1 mps 614 mmHg 56%
    21:00 +21°C° 0.1 mm 1 mps 614 mmHg 59%
    22:00 +20°C° 0.1 mm 1 mps 614 mmHg 63%
    23:00 +20°C° 0.1 mm 1 mps 614 mmHg 66%

    22 February, Friday

    Time Temperature Precipitation Wind Pressure Humidity
    00:00 +19°C° 0 mm 1 mps 614 mmHg 70%
    01:00 +19°C° 0 mm 1 mps 613 mmHg 73%
    02:00 +18°C° 0 mm 1 mps 612 mmHg 77%
    03:00 +18°C° 0 mm 1 mps 613 mmHg 77%
    04:00 +18°C° 0 mm 1 mps 613 mmHg 78%
    05:00 +16°C° 0 mm 1 mps 613 mmHg 79%
    06:00 +20°C° 0 mm 1 mps 614 mmHg 69%
    07:00 +22°C° 0 mm 1 mps 615 mmHg 59%
    08:00 +24°C° 0 mm 1 mps 617 mmHg 50%
    09:00 +27°C° 0 mm 2 mps 617 mmHg 42%
    10:00 +29°C° 0 mm 2 mps 617 mmHg 34%
    11:00 +32°C° 0 mm 2 mps 618 mmHg 26%
    12:00 +31°C° 0 mm 2 mps 617 mmHg 26%
    13:00 +31°C° 0 mm 2 mps 616 mmHg 25%
    14:00 +31°C° 0 mm 2 mps 614 mmHg 25%
    15:00 +30°C° 0 mm 2 mps 614 mmHg 27%
    16:00 +29°C° 0 mm 3 mps 614 mmHg 28%
    17:00 +28°C° 0 mm 3 mps 614 mmHg 30%
    18:00 +26°C° 0 mm 2 mps 614 mmHg 37%
    19:00 +24°C° 0 mm 2 mps 614 mmHg 43%
    20:00 +22°C° 0 mm 1 mps 614 mmHg 49%
    21:00 +21°C° 0.1 mm 1 mps 614 mmHg 54%
    22:00 +21°C° 0.1 mm 1 mps 613 mmHg 58%
    23:00 +20°C° 0.1 mm 1 mps 613 mmHg 63%

    23 February, Saturday

    Time Temperature Precipitation Wind Pressure Humidity
    00:00 +19°C° 0 mm 1 mps 613 mmHg 66%
    01:00 +19°C° 0 mm 1 mps 612 mmHg 69%
    02:00 +18°C° 0 mm 1 mps 612 mmHg 72%
    03:00 +18°C° 0 mm 1 mps 612 mmHg 73%
    04:00 +16°C° 0 mm 1 mps 612 mmHg 75%
    05:00 +16°C° 0 mm 1 mps 612 mmHg 76%
    06:00 +19°C° 0 mm 1 mps 613 mmHg 68%
    07:00 +22°C° 0 mm 1 mps 615 mmHg 60%
    08:00 +24°C° 0 mm 1 mps 616 mmHg 51%
    09:00 +26°C° 0 mm 2 mps 616 mmHg 44%
    10:00 +28°C° 0 mm 2 mps 616 mmHg 37%
    11:00 +30°C° 0 mm 2 mps 617 mmHg 30%
    12:00 +30°C° 0 mm 2 mps 616 mmHg 29%
    13:00 +30°C° 0 mm 2 mps 615 mmHg 27%
    14:00 +30°C° 0 mm 2 mps 614 mmHg 26%
    15:00 +29°C° 0 mm 2 mps 614 mmHg 27%
    16:00 +28°C° 0 mm 3 mps 614 mmHg 29%
    17:00 +27°C° 0 mm 3 mps 613 mmHg 30%
    18:00 +26°C° 0 mm 2 mps 613 mmHg 34%
    19:00 +24°C° 0 mm 2 mps 614 mmHg 38%
    20:00 +23°C° 0 mm 1 mps 614 mmHg 43%
    21:00 +22°C° 0 mm 1 mps 613 mmHg 47%
    22:00 +21°C° 0 mm 1 mps 613 mmHg 51%
    23:00 +20°C° 0 mm 1 mps 613 mmHg 55%
    Show more